Location: La Oliva
(42.2466°N, 2.9955°E)
Time: 10:43:07
(UTC+00:00)

Genesis I - Pass Details

Date: 22 April 2021
Orbit: 483 x 537 km, 64.5° (Epoch: 10 May)

Event Time Altitude Azimuth Distance (km) Brightness Sun altitude
Rises 20:46:11 0° 323° (NW) 2,677 8.3 -21.4°
Reaches altitude 10° 20:48:23 10° 320° (NW) 1,789 7.1 -21.7°
Maximum altitude 20:52:22 64° 240° (WSW) 595 3.4 -22.2°
Enters shadow 20:52:36 63° 217° (SW) 603 3.4 -22.3°
